User: anonymous
Location: Pleiades Observatory
(40.1297°N, 91.5238°W)
Time: 02:39:33
(UTC-05:00)
Language:

Cosmos 1842 Rocket - Orbit

View from above orbital plane
View from above orbital plane
View from above satellite
View from above satellite

Ground track
Ground track

The orbit data is extracted from the following two-line orbital elements,

1 17912U 87038B   14202.92096435  .00000139  00000-0  14317-4 0  4058
2 17912 082.5050 325.7955 0022006 123.3888 236.9436 14.82392746470472
Epoch (UTC): 21 July 2014 22:06:11
Eccentricity: 0.0022006
inclination: 82.5050°
perigee height: 606 km
apogee height: 637 km
right ascension of ascending node: 325.7955°
argument of perigee: 123.3888°
revolutions per day: 14.82392746
mean anomaly at epoch: 236.9436°
orbit number at epoch: 47047

The dashed part of the orbit path shows where the satellite is in the earth's shadow,  

DLR